• In Romania
  • List of Countries
  • For 7 days
  • Water Temperature
  • Satellite Maps
  • Weather Map
  • Weather Widgets
  • user-avatar
    Login

    Hourly Weather Lupishki

    Today, 24 September, Monday

    Time Temperature Precipitation Wind Pressure Humidity
    00:00 +8°C° 0 mm 4 mps 745 mmHg 87%
    01:00 +8°C° 0 mm 3 mps 745 mmHg 88%
    02:00 +8°C° 0 mm 3 mps 745 mmHg 90%
    03:00 +7°C° 0 mm 3 mps 745 mmHg 93%
    04:00 +7°C° 0 mm 3 mps 745 mmHg 93%
    05:00 +7°C° 0 mm 3 mps 745 mmHg 94%
    06:00 +7°C° 0 mm 3 mps 745 mmHg 94%
    07:00 +8°C° 0 mm 3 mps 745 mmHg 89%
    08:00 +9°C° 0 mm 3 mps 745 mmHg 85%
    09:00 +10°C° 0 mm 3 mps 745 mmHg 79%
    10:00 +11°C° 0 mm 4 mps 745 mmHg 74%
    11:00 +12°C° 0 mm 5 mps 744 mmHg 69%
    12:00 +13°C° 0 mm 6 mps 744 mmHg 64%
    13:00 +13°C° 0.2 mm 6 mps 743 mmHg 66%
    14:00 +11°C° 0.2 mm 6 mps 743 mmHg 68%
    15:00 +10°C° 0.2 mm 6 mps 742 mmHg 71%
    16:00 +10°C° 1 mm 7 mps 741 mmHg 75%
    17:00 +10°C° 1 mm 7 mps 741 mmHg 79%
    18:00 +9°C° 1 mm 8 mps 740 mmHg 83%
    19:00 +10°C° 1.1 mm 8 mps 739 mmHg 83%
    20:00 +10°C° 1.1 mm 9 mps 738 mmHg 83%
    21:00 +10°C° 1.1 mm 9 mps 737 mmHg 83%
    22:00 +10°C° 0.4 mm 9 mps 737 mmHg 85%
    23:00 +10°C° 0.4 mm 8 mps 736 mmHg 86%

    Tomorrow, 25 September, Tuesday

    Time Temperature Precipitation Wind Pressure Humidity
    00:00 +10°C° 0.4 mm 8 mps 736 mmHg 87%
    01:00 +10°C° 0.1 mm 8 mps 736 mmHg 86%
    02:00 +9°C° 0.1 mm 7 mps 736 mmHg 85%
    03:00 +8°C° 0.1 mm 6 mps 736 mmHg 84%
    04:00 +8°C° 0 mm 6 mps 736 mmHg 83%
    05:00 +8°C° 0 mm 7 mps 736 mmHg 83%
    06:00 +6°C° 0 mm 7 mps 736 mmHg 82%
    07:00 +8°C° 0 mm 7 mps 736 mmHg 81%
    08:00 +8°C° 0 mm 7 mps 737 mmHg 80%
    09:00 +7°C° 0 mm 8 mps 737 mmHg 79%
    10:00 +7°C° 0.1 mm 8 mps 738 mmHg 78%
    11:00 +9°C° 0.1 mm 8 mps 738 mmHg 77%
    12:00 +9°C° 0.1 mm 8 mps 739 mmHg 76%
    13:00 +9°C° 0.1 mm 8 mps 739 mmHg 75%
    14:00 +7°C° 0.1 mm 8 mps 740 mmHg 75%
    15:00 +8°C° 0.1 mm 7 mps 741 mmHg 74%
    16:00 +8°C° 0.1 mm 7 mps 741 mmHg 75%
    17:00 +8°C° 0.1 mm 7 mps 742 mmHg 76%
    18:00 +6°C° 0.1 mm 7 mps 742 mmHg 77%
    19:00 +6°C° 0.1 mm 7 mps 743 mmHg 78%
    20:00 +6°C° 0.1 mm 7 mps 744 mmHg 79%
    21:00 +5°C° 0.1 mm 7 mps 744 mmHg 80%
    22:00 +5°C° 0.1 mm 6 mps 745 mmHg 81%
    23:00 +5°C° 0.1 mm 6 mps 745 mmHg 81%

    Day after tomorrow, 26 September, Wednesday

    Time Temperature Precipitation Wind Pressure Humidity
    00:00 +5°C° 0.1 mm 6 mps 746 mmHg 82%
    01:00 +4°C° 0 mm 6 mps 746 mmHg 82%
    02:00 +4°C° 0 mm 6 mps 747 mmHg 83%
    03:00 +5°C° 0 mm 5 mps 747 mmHg 84%
    04:00 +3°C° 0 mm 5 mps 748 mmHg 84%
    05:00 +3°C° 0 mm 5 mps 749 mmHg 84%
    06:00 +3°C° 0 mm 5 mps 749 mmHg 84%
    07:00 +3°C° 0 mm 6 mps 750 mmHg 81%
    08:00 +3°C° 0 mm 6 mps 751 mmHg 78%
    09:00 +4°C° 0 mm 6 mps 751 mmHg 74%
    10:00 +5°C° 0 mm 6 mps 752 mmHg 68%
    11:00 +5°C° 0 mm 6 mps 752 mmHg 63%
    12:00 +7°C° 0 mm 6 mps 752 mmHg 57%
    13:00 +8°C° 0 mm 5 mps 752 mmHg 54%
    14:00 +8°C° 0 mm 5 mps 752 mmHg 51%
    15:00 +8°C° 0 mm 5 mps 752 mmHg 48%
    16:00 +8°C° 0 mm 4 mps 752 mmHg 53%
    17:00 +7°C° 0 mm 4 mps 752 mmHg 57%
    18:00 +7°C° 0 mm 3 mps 752 mmHg 61%
    19:00 +5°C° 0 mm 3 mps 752 mmHg 62%
    20:00 +5°C° 0 mm 4 mps 752 mmHg 64%
    21:00 +4°C° 0 mm 4 mps 752 mmHg 65%
    22:00 +3°C° 0 mm 5 mps 752 mmHg 66%
    23:00 +5°C° 0 mm 5 mps 751 mmHg 66%

    27 September, Thursday

    Time Temperature Precipitation Wind Pressure Humidity
    00:00 +4°C° 0 mm 6 mps 750 mmHg 66%
    01:00 +4°C° 0 mm 7 mps 750 mmHg 67%
    02:00 +4°C° 0 mm 7 mps 749 mmHg 68%
    03:00 +5°C° 0 mm 8 mps 748 mmHg 69%
    04:00 +5°C° 0.5 mm 8 mps 747 mmHg 72%
    05:00 +3°C° 0.5 mm 9 mps 746 mmHg 74%
    06:00 +3°C° 0.5 mm 10 mps 745 mmHg 77%
    07:00 +3°C° 0.7 mm 10 mps 745 mmHg 79%
    08:00 +5°C° 0.7 mm 10 mps 744 mmHg 81%
    09:00 +5°C° 0.7 mm 10 mps 744 mmHg 82%
    10:00 +5°C° 0.6 mm 10 mps 744 mmHg 83%
    11:00 +6°C° 0.6 mm 9 mps 743 mmHg 84%
    12:00 +6°C° 0.6 mm 9 mps 743 mmHg 85%
    13:00 +6°C° 0.2 mm 8 mps 743 mmHg 85%
    14:00 +7°C° 0.2 mm 8 mps 743 mmHg 85%
    15:00 +7°C° 0.2 mm 8 mps 743 mmHg 85%
    16:00 +7°C° 0.3 mm 8 mps 742 mmHg 86%
    17:00 +8°C° 0.3 mm 7 mps 742 mmHg 88%
    18:00 +8°C° 0.3 mm 7 mps 742 mmHg 89%
    19:00 +8°C° 0.6 mm 6 mps 742 mmHg 90%
    20:00 +8°C° 0.6 mm 5 mps 743 mmHg 91%
    21:00 +8°C° 0.6 mm 5 mps 743 mmHg 92%
    22:00 +7°C° 0 mm 4 mps 743 mmHg 93%
    23:00 +7°C° 0 mm 4 mps 743 mmHg 94%

    28 September, Friday

    Time Temperature Precipitation Wind Pressure Humidity
    00:00 +8°C° 0 mm 3 mps 743 mmHg 95%
    01:00 +8°C° 0 mm 3 mps 743 mmHg 94%
    02:00 +8°C° 0 mm 3 mps 743 mmHg 93%
    03:00 +8°C° 0 mm 3 mps 743 mmHg 92%
    04:00 +8°C° 0 mm 3 mps 743 mmHg 91%
    05:00 +8°C° 0 mm 3 mps 743 mmHg 90%
    06:00 +8°C° 0 mm 3 mps 742 mmHg 89%
    07:00 +8°C° 0 mm 4 mps 742 mmHg 87%
    08:00 +9°C° 0 mm 5 mps 742 mmHg 84%
    09:00 +10°C° 0 mm 6 mps 741 mmHg 82%
    10:00 +10°C° 0.1 mm 7 mps 741 mmHg 83%
    11:00 +11°C° 0.1 mm 8 mps 740 mmHg 83%
    12:00 +11°C° 0.1 mm 9 mps 740 mmHg 84%
    13:00 +12°C° 0.1 mm 10 mps 740 mmHg 82%
    14:00 +12°C° 0.1 mm 10 mps 740 mmHg 81%
    15:00 +13°C° 0.1 mm 10 mps 740 mmHg 80%
    16:00 +12°C° 0.6 mm 9 mps 740 mmHg 82%
    17:00 +11°C° 0.6 mm 7 mps 741 mmHg 84%
    18:00 +10°C° 0.6 mm 5 mps 741 mmHg 87%
    19:00 +10°C° 0.2 mm 4 mps 742 mmHg 87%
    20:00 +8°C° 0.2 mm 4 mps 743 mmHg 87%
    21:00 +9°C° 0.2 mm 3 mps 743 mmHg 88%
    22:00 +8°C° 0 mm 3 mps 744 mmHg 89%
    23:00 +7°C° 0 mm 2 mps 744 mmHg 90%

    29 September, Saturday

    Time Temperature Precipitation Wind Pressure Humidity
    00:00 +6°C° 0 mm 2 mps 745 mmHg 92%
    01:00 +6°C° 0 mm 2 mps 745 mmHg 91%
    02:00 +6°C° 0 mm 1 mps 746 mmHg 91%
    03:00 +6°C° 0 mm 1 mps 746 mmHg 90%
    04:00 +6°C° 0 mm 1 mps 746 mmHg 90%
    05:00 +5°C° 0 mm 1 mps 747 mmHg 89%
    06:00 +5°C° 0 mm 1 mps 747 mmHg 89%
    07:00 +6°C° 0 mm 1 mps 747 mmHg 85%
    08:00 +7°C° 0 mm 1 mps 747 mmHg 81%
    09:00 +7°C° 0 mm 2 mps 748 mmHg 77%
    10:00 +8°C° 0 mm 2 mps 748 mmHg 71%
    11:00 +9°C° 0 mm 2 mps 748 mmHg 66%
    12:00 +10°C° 0 mm 2 mps 748 mmHg 60%
    13:00 +10°C° 0 mm 2 mps 747 mmHg 59%
    14:00 +12°C° 0 mm 2 mps 747 mmHg 59%
    15:00 +12°C° 0 mm 2 mps 747 mmHg 58%
    16:00 +10°C° 0.1 mm 2 mps 747 mmHg 63%
    17:00 +10°C° 0.1 mm 2 mps 747 mmHg 67%
    18:00 +9°C° 0.1 mm 2 mps 747 mmHg 72%
    19:00 +8°C° 0.4 mm 2 mps 748 mmHg 75%
    20:00 +8°C° 0.4 mm 2 mps 748 mmHg 78%
    21:00 +8°C° 0.4 mm 2 mps 749 mmHg 81%
    22:00 +7°C° 0.2 mm 2 mps 749 mmHg 82%
    23:00 +7°C° 0.2 mm 2 mps 749 mmHg 83%
    Show more